This demonstration page uses our WeatherBlox Daily Observations layout. Learn more.

Left ArrowRight Arrow

38.20091, -84.87328

Hourly Observations for July 8, 2015

Temp ( °F °C ) Dew Point ( °F °C ) Humidity (%) Winds ( mph kmh ) Pressure ( in mb ) Visibility ( mi km ) Precip ( " mm )
12:15 am 00:15 Cloudy 71 21.7 69 20.6 94 94 SSW 3 6 30.00 1016 9 14 0.00 0.03
12:24 am 00:24 Mostly Cloudy 71 21.7 69 20.6 94 94 SW 5 7 30.00 1016 8 13 0.01 0.25
12:53 am 00:53 Cloudy 72 22.2 70 21.1 94 94 SW 8 13 30.01 1016 10 16 0.01 0.25
1:00 am 01:00 Cloudy 72 22.2 70 21.1 94 94 SW 10 17 30.00 1016 10 16 0.00 0.00
1:25 am 01:25 Cloudy 71 21.7 69 20.6 94 94 SW 12 19 30.00 1016 10 16 0.00 0.00
1:44 am 01:44 Cloudy 71 21.7 68 20 90 90 SW 13 20 30.00 1016 10 16 0.00 0.00
1:53 am 01:53 Cloudy 71 21.7 68 20 90 90 SW 10 17 30.02 1017 10 16 0.00 0.00
2:53 am 02:53 Cloudy 71 21.7 68 20 90 90 SW 9 15 30.01 1016 10 16 0.00 0.00
3:53 am 03:53 Cloudy 71 21.7 68 20 90 90 SW 7 11 30.01 1016 9 14 0.00 0.00
4:53 am 04:53 Cloudy 71 21.7 69 20.6 94 94 WSW 6 9 30.01 1016 8 13 0.00 0.00
5:53 am 05:53 Cloudy 71 21.7 69 20.6 94 94 SSW 8 13 30.02 1017 8 13 0.00 0.00
6:53 am 06:53 Cloudy 71 21.7 68 20 90 90 SSW 9 15 30.03 1017 8 13 0.00 0.00
7:11 am 07:11 Cloudy with Mist and Fog 71 21.7 68 20 90 90 SW 9 15 30.03 1017 5 8 0.00 0.00
7:53 am 07:53 Cloudy 71 21.7 69 20.6 94 94 SW 8 13 30.04 1017 8 13 0.00 0.03
8:15 am 08:15 Cloudy 72 22.2 69 20.6 91 91 WSW 5 7 30.03 1017 8 13 0.00 0.00
8:53 am 08:53 Cloudy 72 22.2 69 20.6 91 91 SW 7 11 30.05 1018 9 14 0.00 0.00
9:53 am 09:53 Cloudy 72 22.2 69 20.6 91 91 SSW 7 11 30.06 1018 8 13 0.01 0.25
10:53 am 10:53 Cloudy 73 22.8 69 20.6 87 87 SW 9 15 30.06 1018 10 16 0.00 0.00
11:41 am 11:41 Cloudy 74 23.3 70 21.1 88 88 VRB 7 11 30.06 1018 10 16 0.00 0.00
11:53 am 11:53 Cloudy 75 23.9 70 21.1 84 84 WSW 7 11 30.06 1018 10 16 0.00 0.00
12:27 pm 12:27 Cloudy 75 23.9 70 21.1 84 84 WSW 6 9 30.06 1018 10 16 0.00 0.00
12:42 pm 12:42 Cloudy with Light Rain 75 23.9 71 21.7 88 88 SW 7 11 30.06 1018 7 11 0.00 0.03
12:53 pm 12:53 Cloudy 74 23.3 70 21.1 88 88 SW 9 15 30.06 1018 7 11 0.00 0.03
1:18 pm 13:18 Cloudy 75 23.9 71 21.7 88 88 SW 10 17 30.06 1018 7 11 0.00 0.03
1:29 pm 13:29 Cloudy 75 23.9 71 21.7 88 88 SW 10 17 30.06 1018 8 13 0.00 0.03
1:53 pm 13:53 Cloudy with Light Rain 75 23.9 71 21.7 88 88 SW 9 15 30.06 1018 6 10 0.00 0.03
2:53 pm 14:53 Mostly Cloudy 76 24.4 71 21.7 85 85 SW 13 20 30.04 1017 9 14 0.00 0.03
3:00 pm 15:00 Cloudy 77 25 71 21.7 82 82 WSW 8 13 30.03 1017 9 14 0.00 0.00
3:17 pm 15:17 Cloudy 77 25 71 21.7 82 82 SW 12 19 30.03 1017 9 14 0.00 0.00
3:53 pm 15:53 Mostly Cloudy 80 26.7 72 22.2 76 76 W 10 17 30.04 1017 10 16 0.00 0.00
4:36 pm 16:36 Mostly Cloudy 78 25.6 71 21.7 79 79 SW 10 17 30.03 1017 10 16 0.00 0.00
4:53 pm 16:53 Cloudy 78 25.6 71 21.7 79 79 SW 9 15 30.04 1017 9 14 0.00 0.00
5:53 pm 17:53 Mostly Sunny 79 26.1 71 21.7 77 77 SW 7 11 30.03 1017 9 14 0.00 0.00
6:53 pm 18:53 Sunny 79 26.1 72 22.2 79 79 SSW 8 13 30.01 1016 9 14 0.00 0.00
7:53 pm 19:53 Mostly Sunny 78 25.6 72 22.2 82 82 S 5 7 30.01 1016 9 14 0.00 0.00
8:53 pm 20:53 Sunny 77 25 73 22.8 88 88 SE 6 9 30.02 1017 8 13 0.00 0.00
9:53 pm 21:53 Clear 76 24.4 72 22.2 88 88 SSE 3 6 30.02 1017 9 14 0.00 0.00
10:53 pm 22:53 Clear 75 23.9 72 22.2 90 90 Calm 30.03 1017 9 14 0.00 0.00
11:53 pm 23:53 Clear 73 22.8 70 21.1 90 90 Calm 30.01 1016 10 16 0.00 0.00

Powered by AerisWeather